Regional Weather Roundup
Issued by NWS Sterling, VA

Home | Current Version | Previous Version | Text Only | Print | Product List | Glossary Off
Versions: 1 2 3 4 5 6 7 8 9 10 11 12 13 14 15 16 17 18 19 20 21 22 23 24 25 26 27

000
ASUS41 KLWX 232210
RWRLWX

REGIONAL WEATHER ROUNDUP
NATIONAL WEATHER SERVICE BALTIMORE MD/WASHINGTON DC
600 PM EDT WED APR 23 2014

Note: "FAIR" indicates few or no clouds below 12,000 feet
with no significant weather and/or obstructions to visibility.
 TC=TEMPERATURE CELSIUS

 * =Non NWS site. Station does not report precipitation (e.g. rain,
    snow, etc.), thunder, or fog.

DCZ001-MDZ009-015-VAZ040>042-051-053>054-232300-
WASHINGTON METRO

CITY           SKY/WX    TMP DP  RH WIND       PRES   REMARKS
WASHINGTON NAT MOSUNNY   58  34  40 NW21G29   29.87R
DULLES         MOSUNNY   55  32  41 NW21G32   29.88R
ANDREWS AFB    SUNNY     57  33  40 NW26G32   29.85R
FT BELVOIR     MOSUNNY   58  33  37 NW20G29   29.88R
QUANTICO       MOSUNNY   61  32  33 NW20G32   29.88R
COLLEGE PARK*  MOSUNNY   59  34  38 NW14G24   29.86R
LEESBURG*      SUNNY     55  37  50 NW22G32   29.90R
MANASSAS*      MOSUNNY   59  34  38 NW28G36   29.88R
GAITHERSBURG*  MOSUNNY   54  34  47 NW17G30   29.89S

$$

MDZ006>007-011-014-232300-
BALTIMORE METRO

CITY           SKY/WX    TMP DP  RH WIND       PRES   REMARKS
BWI AIRPORT    MOSUNNY   56  34  43 NW21G30   29.84R
MD SCIENCE CTR   N/A     57  34  41 MISG      29.84R
MARTIN STATE   MOSUNNY   57  37  47 W20G31    29.84R
ANNAPOLIS      SUNNY     56  37  49 NW18G28   29.83R
FORT MEADE*    MOSUNNY   55  34  44 W18G28    29.88R

$$

MDZ012-015-019>023-232300-
MARYLAND EASTERN SHORE

CITY           SKY/WX    TMP DP  RH WIND       PRES   REMARKS
OCEAN CITY     SUNNY     60  35  39 N18G26    29.75R
SALISBURY      SUNNY     61  35  37 NW17G28   29.78R
CAMBRIDGE*     SUNNY     61  34  36 NW20G26   29.81R
EASTON*        SUNNY     59  39  47 NW20      29.85R

$$

MDZ017>025-232300-
SOUTHERN MARYLAND

CITY           SKY/WX    TMP DP  RH WIND       PRES   REMARKS
PATUXENT RIVER MOSUNNY   60  33  36 NW20G31   29.82R
ST INIGOES     SUNNY     60  34  37 W16G26    29.82R
LEONARDTOWN*   SUNNY     59  32  36 W16G24    29.84R

$$

MDZ003>005-232300-
NORTH CENTRAL MARYLAND

CITY           SKY/WX    TMP DP  RH WIND       PRES   REMARKS
FREDERICK*     SUNNY     54  37  54 NW23G35   29.92R
HAGERSTOWN APT MOSUNNY   50  33  52 NW22G30   29.89S
WESTMINSTER*   SUNNY     54  34  47 NW16G32   29.86R

$$

MDZ501>502-232300-
WESTERN MARYLAND

CITY           SKY/WX    TMP DP  RH WIND       PRES   REMARKS
OAKLAND*       MOSUNNY   41  28  60 NW14G25   29.93R
CUMBERLAND*    MOSUNNY   54  32  43 NW13G21   29.99S

$$

VAZ025>031-232300-
SHENANDOAH VALLEY

CITY           SKY/WX    TMP DP  RH WIND       PRES   REMARKS
WINCHESTER*    SUNNY     54  32  43 NW23G32   29.91R
STAUNTON*      SUNNY     58  28  31 NW17G23   29.92R

$$

WVZ021-048>050-054>055-232300-
EASTERN WEST VIRGINIA PANHANDLE

CITY           SKY/WX    TMP DP  RH WIND       PRES   REMARKS
MARTINSBURG    SUNNY     55  32  41 NW16      29.91S
PETERSBURG*    MOSUNNY   58  38  47 NW13G18   29.97R

$$

VAZ036>039-050-232300-
CENTRAL FOOTHILLS

CITY           SKY/WX    TMP DP  RH WIND       PRES   REMARKS
CHARLOTTESVILL SUNNY     62  30  29 NW10G23   29.87R
CULPEPER*      SUNNY     63  28  27 N14G23    29.89R

$$

VAZ055>057-232300-
NORTH AND CENTRAL PIEDMONT

CITY           SKY/WX    TMP DP  RH WIND       PRES   REMARKS
FREDERICKSBRG* SUNNY     64  33  31 NW18G26   29.86R
STAFFORD*      SUNNY     61  34  36 NW22      29.91R

$$

NCZ024-NYZ072-PAZ021-071-VAZ022-071-232300-
OTHER REGIONAL OBSERVATIONS

CITY           SKY/WX    TMP DP  RH WIND       PRES   REMARKS
NEW YORK CITY  MOSUNNY   55  32  41 NW15G30   29.69R
PHILADELPHIA   PTSUNNY   59  32  36 NW23      29.75R
PITTSBURGH     PTSUNNY   47  30  51 W17G24    30.02S
ROANOKE        SUNNY     65  26  23 NW18G25   29.91R
RICHMOND       MOSUNNY   66  28  24 N17G24    29.84R
RALEIGH        MOSUNNY   71  25  17 N10       29.84R

$$

ANZ530>537-232300-
MARINE OBSERVATIONS

STATION/POSITION TIME  TEMP    WIND        PRES
                       AIR SEA DIR/SP/G
                 (UTC) (F)     (DEG/KT/KT) (MB)
THOMAS PT LIGHT  2200   56 54  300/ 25/ 29 1010.0R
BALT KEY BRIDGE  2200   55     270/ 23/ 25 1010.2R
COVE POINT       2200   57     340/ 19/ 22 1009.3R
LEWISETTA        2200   59 59  320/ 14/ 19 1010.0R
SOLOMONS ISLAND  2200      56                N/A
PINEY POINT      2200          330/ 21/ 22   N/A

$$




USA.gov is the U.S. government's official web portal to all federal, state and local government web resources and services.